CW6981 Weather Reports


time (UTC)temp
F
wind
direction
speed
knots
gust
knots
rain 1hr
in
rain 24hr
in
rain mn
in
humidity
%
barometer
mb
20220629031532 81 112 0.0 0.9 0.00 0.00 0.00 24 1022.9
20220629031033 81 112 0.0 1.7 0.00 0.00 0.00 24 1022.9
20220629030529 82 114 0.0 1.7 0.00 0.00 0.00 23 1022.8
20220629030042 82 230 0.0 0.9 0.00 0.00 0.00 23 1022.7
20220629025542 82 230 0.0 0.9 0.00 0.00 0.00 24 1022.6
20220629025038 82 152 0.0 0.9 0.00 0.00 0.00 25 1022.6
20220629024528 82 152 0.0 0.9 0.00 0.00 0.00 25 1022.5
20220629024028 83 152 0.0 0.9 0.00 0.00 0.00 24 1022.4
20220629023543 83 152 0.0 1.7 0.00 0.00 0.00 24 1022.4
20220629023033 83 152 0.0 1.7 0.00 0.00 0.00 24 1022.3
20220629022533 83 154 0.0 0.9 0.00 0.00 0.00 24 1022.3
20220629022034 83 150 0.0 0.9 0.00 0.00 0.00 24 1022.3
20220629021527 83 150 0.0 0.9 0.00 0.00 0.00 25 1022.2
20220629021039 83 150 0.0 0.9 0.00 0.00 0.00 24 1022.2
20220629020533 83 150 0.0 1.7 0.00 0.00 0.00 24 1022.2
20220629020033 84 225 0.9 1.7 0.00 0.00 0.00 24 1022.2
20220629015544 84 176 0.0 0.9 0.00 0.00 0.00 24 1022.1
20220629015038 84 181 0.0 0.9 0.00 0.00 0.00 24 1022.1
20220629014536 84 100 0.0 0.9 0.00 0.00 0.00 24 1022.1
20220629014029 84 100 0.0 0.9 0.00 0.00 0.00 24 1022.1
20220629013542 84 100 0.0 0.9 0.00 0.00 0.00 24 1022.0
20220629013042 84 101 0.0 0.9 0.00 0.00 0.00 24 1022.2
20220629012536 84 85 0.0 0.9 0.00 0.00 0.00 25 1022.2
20220629012030 84 85 0.0 0.9 0.00 0.00 0.00 27 1022.2
20220629011527 84 85 0.0 0.0 0.00 0.00 0.00 26 1022.2
20220629011040 84 85 0.0 0.0 0.00 0.00 0.00 26 1022.2
20220629010535 84 85 0.0 0.0 0.00 0.00 0.00 25 1022.2
20220629010028 85 85 0.0 0.0 0.00 0.00 0.00 27 1022.2
20220629005538 85 85 0.0 0.9 0.00 0.00 0.00 28 1022.2
20220629005050 85 85 0.0 0.9 0.00 0.00 0.00 26 1022.3
20220629004547 85 85 0.0 0.9 0.00 0.00 0.00 26 1022.2
20220629004040 85 85 0.0 0.0 0.00 0.00 0.00 29 1022.2
20220629003530 85 85 0.0 0.0 0.00 0.00 0.00 27 1022.3
20220629003025 86 85 0.0 0.9 0.00 0.00 0.00 29 1022.3
20220629002540 86 85 0.0 0.9 0.00 0.00 0.00 27 1022.3
20220629002032 86 85 0.0 0.9 0.00 0.00 0.00 25 1022.3
20220629001531 86 85 0.0 0.0 0.00 0.00 0.00 25 1022.3
20220629001029 86 85 0.0 0.9 0.00 0.00 0.00 25 1022.4
20220629000539 87 85 0.0 0.9 0.00 0.00 0.00 26 1022.3
20220629000029 86 85 0.0 0.0 0.00 0.00 0.00 23 1022.3
20220628235544 86 85 0.0 0.9 0.00 0.00 0.00 21 1022.3
20220628235026 87 85 0.0 0.9 0.00 0.00 0.00 18 1022.3
20220628234538 88 85 0.0 0.9 0.00 0.00 0.00 20 1022.4
20220628234047 89 85 0.0 0.9 0.00 0.00 0.00 22 1022.4
20220628233546 90 73 0.0 1.7 0.00 0.00 0.00 22 1022.5
20220628233035 90 73 0.0 1.7 0.00 0.00 0.00 20 1022.5
20220628232527 91 83 0.0 1.7 0.00 0.00 0.00 19 1022.5
20220628232026 90 81 0.0 0.9 0.00 0.00 0.00 16 1022.6
20220628231538 90 81 0.0 0.9 0.00 0.00 0.00 18 1022.6
20220628231030 91 81 0.0 3.5 0.00 0.00 0.00 17 1022.6
20220628230527 91 81 1.7 3.5 0.00 0.00 0.00 16 1022.7
20220628230038 91 37 0.9 1.7 0.00 0.00 0.00 20 1022.7
20220628225530 92 37 0.0 0.9 0.00 0.00 0.00 17 1022.7
20220628225028 92 37 0.0 1.7 0.00 0.00 0.00 15 1022.8
20220628224536 92 31 0.0 1.7 0.00 0.00 0.00 17 1022.8
20220628224048 93 256 0.0 1.7 0.00 0.00 0.00 19 1022.9
20220628223545 92 255 0.9 1.7 0.00 0.00 0.00 17 1022.9
20220628223042 92 255 0.0 0.9 0.00 0.00 0.00 17 1023.0
20220628222535 92 255 0.9 2.6 0.00 0.00 0.00 18 1023.0
20220628222035 92 254 0.9 2.6 0.00 0.00 0.00 17 1023.1
20220628221526 92 257 0.9 2.6 0.00 0.00 0.00 17 1023.1
20220628221039 92 259 0.9 2.6 0.00 0.00 0.00 16 1023.1
20220628220540 92 92 0.0 3.5 0.00 0.00 0.00 18 1023.2
20220628220039 91 91 0.0 4.3 0.00 0.00 0.00 18 1023.2
20220628215530 91 100 2.6 4.3 0.00 0.00 0.00 17 1023.2
20220628215041 91 94 0.9 4.3 0.00 0.00 0.00 17 1023.2
20220628214536 91 79 0.0 4.3 0.00 0.00 0.00 17 1023.4
20220628214032 92 85 0.9 4.3 0.00 0.00 0.00 14 1023.4
20220628213544 91 69 0.9 2.6 0.00 0.00 0.00 16 1023.4
20220628213036 89 41 0.0 2.6 0.00 0.00 0.00 18 1023.4
20220628212536 91 75 0.0 2.6 0.00 0.00 0.00 18 1023.5
20220628212029 92 75 0.9 2.6 0.00 0.00 0.00 15 1023.5
20220628211539 91 74 0.9 3.5 0.00 0.00 0.00 19 1023.6
20220628211040 90 82 1.7 3.5 0.00 0.00 0.00 15 1023.6
20220628210536 91 76 0.0 3.5 0.00 0.00 0.00 17 1023.5
20220628210030 90 72 0.9 3.5 0.00 0.00 0.00 16 1023.5
20220628205527 91 73 0.9 3.5 0.00 0.00 0.00 17 1023.5
20220628205040 91 78 1.7 3.5 0.00 0.00 0.00 15 1023.5
20220628204532 91 87 1.7 3.5 0.00 0.00 0.00 16 1023.6
20220628204035 91 100 0.9 5.2 0.00 0.00 0.00 17 1023.5
20220628203530 91 80 0.0 5.2 0.00 0.00 0.00 15 1023.6
20220628203040 91 79 0.9 3.5 0.00 0.00 0.00 16 1023.7
20220628202535 90 110 0.9 4.3 0.00 0.00 0.00 18 1023.7
20220628202034 90 69 2.6 4.3 0.00 0.00 0.00 17 1023.7
20220628201530 91 79 0.9 1.7 0.00 0.00 0.00 15 1023.8
20220628201029 90 93 0.0 3.5 0.00 0.00 0.00 17 1023.8
20220628200542 90 94 1.7 3.5 0.00 0.00 0.00 16 1023.9
20220628200036 89 235 0.9 2.6 0.00 0.00 0.00 19 1023.9
20220628195534 88 70 0.9 2.6 0.00 0.00 0.00 18 1024.0
20220628195036 88 104 0.9 3.5 0.00 0.00 0.00 21 1024.0
20220628194530 87 68 1.7 3.5 0.00 0.00 0.00 19 1024.1
20220628194044 88 85 0.9 4.3 0.00 0.00 0.00 18 1024.2
20220628193534 89 77 1.7 4.3 0.00 0.00 0.00 19 1024.2
20220628193029 89 89 0.9 4.3 0.00 0.00 0.00 17 1024.2
20220628192539 88 86 1.7 4.3 0.00 0.00 0.00 17 1024.1
20220628192030 89 82 0.9 4.3 0.00 0.00 0.00 18 1024.3
20220628191532 89 128 0.9 5.2 0.00 0.00 0.00 21 1024.4
20220628191024 89 74 2.6 5.2 0.00 0.00 0.00 19 1024.4
20220628190539 88 82 0.9 2.6 0.00 0.00 0.00 18 1024.4
20220628190037 87 67 0.0 2.6 0.00 0.00 0.00 21 1024.5
20220628185528 86 55 0.0 1.7 0.00 0.00 0.00 19 1024.5
20220628185041 87 55 0.9 5.2 0.00 0.00 0.00 18 1024.6
20220628184537 87 81 0.9 5.2 0.00 0.00 0.00 21 1024.7
20220628184029 87 77 0.9 1.7 0.00 0.00 0.00 22 1024.7
20220628183540 87 120 0.9 1.7 0.00 0.00 0.00 20 1024.7
20220628183036 86 121 0.9 4.3 0.00 0.00 0.00 20 1024.7
20220628182542 86 77 0.0 4.3 0.00 0.00 0.00 20 1024.8
20220628182033 87 103 0.0 5.2 0.00 0.00 0.00 21 1024.8
20220628181529 87 40 1.7 5.2 0.00 0.00 0.00 21 1024.8
20220628181026 87 75 0.9 4.3 0.00 0.00 0.00 22 1024.8
20220628180539 86 76 0.9 4.3 0.00 0.00 0.00 23 1024.8
20220628180036 86 75 1.7 3.5 0.00 0.00 0.00 22 1024.8
20220628175527 87 87 1.7 4.3 0.00 0.00 0.00 25 1024.8
20220628175038 86 69 0.9 4.3 0.00 0.00 0.00 23 1024.9
20220628174535 85 114 1.7 3.5 0.00 0.00 0.00 27 1024.9
20220628174046 86 202 1.7 3.5 0.00 0.00 0.00 23 1024.9
20220628173537 85 274 0.9 3.5 0.00 0.00 0.00 25 1024.9
20220628173029 85 77 0.9 2.6 0.00 0.00 0.00 26 1025.0
20220628172541 85 77 1.7 2.6 0.00 0.00 0.00 26 1025.0
20220628172033 85 91 1.7 3.5 0.00 0.00 0.00 28 1025.0
20220628171529 84 82 0.0 3.5 0.00 0.00 0.00 30 1025.0
20220628171040 84 73 0.9 3.5 0.00 0.00 0.00 27 1025.0
20220628170531 84 83 1.7 3.5 0.00 0.00 0.00 30 1025.1
20220628170028 84 86 0.9 3.5 0.00 0.00 0.00 26 1025.1
20220628165526 83 78 0.0 3.5 0.00 0.00 0.00 28 1025.1
20220628165043 83 83 1.7 3.5 0.00 0.00 0.00 28 1025.1
20220628164543 83 82 0.9 3.5 0.00 0.00 0.00 29 1025.1
20220628164037 83 85 1.7 3.5 0.00 0.00 0.00 33 1025.1
20220628163532 82 81 0.9 3.5 0.00 0.00 0.00 30 1025.1
20220628163041 82 77 0.9 3.5 0.00 0.00 0.00 32 1025.1
20220628162531 82 82 0.9 3.5 0.00 0.00 0.00 31 1025.1
20220628162034 81 75 0.0 1.7 0.00 0.00 0.00 33 1025.2
20220628161544 81 75 0.0 1.7 0.00 0.00 0.00 30 1025.2
20220628161035 81 75 0.9 3.5 0.00 0.00 0.00 33 1025.2
20220628160533 81 75 2.6 3.5 0.00 0.00 0.00 34 1025.3
20220628160043 81 116 0.9 3.5 0.00 0.00 0.00 32 1025.3
20220628155532 81 78 0.9 1.7 0.00 0.00 0.00 33 1025.3
20220628155034 81 78 0.0 1.7 0.00 0.00 0.00 30 1025.3
20220628154544 81 74 0.9 1.7 0.00 0.00 0.00 33 1025.3
20220628154035 80 70 0.9 1.7 0.00 0.00 0.00 32 1025.4
20220628153533 80 70 0.0 1.7 0.00 0.00 0.00 32 1025.4
20220628153038 79 70 0.9 1.7 0.00 0.00 0.00 34 1025.4
20220628152529 76 59 0.0 2.6 0.00 0.00 0.00 35 1025.5
20220628152028 75 59 0.9 2.6 0.00 0.00 0.00 35 1025.5
20220628151536 74 69 0.0 0.9 0.00 0.00 0.00 37 1025.6
20220628151028 74 69 0.0 0.9 0.00 0.00 0.00 39 1025.6
20220628150527 73 58 0.0 1.7 0.00 0.00 0.00 40 1025.6
20220628150036 73 58 0.0 1.7 0.00 0.00 0.00 42 1025.7
20220628145535 72 58 0.0 1.7 0.00 0.00 0.00 44 1025.6
20220628145033 72 56 0.0 1.7 0.00 0.00 0.00 45 1025.7
20220628144529 71 46 0.9 1.7 0.00 0.00 0.00 46 1025.7
20220628144040 70 19 0.0 1.7 0.00 0.00 0.00 46 1025.7
20220628143537 69 19 0.9 1.7 0.00 0.00 0.00 45 1025.8
20220628143027 69 332 0.0 1.7 0.00 0.00 0.00 45 1025.8
20220628142528 68 332 0.0 1.7 0.00 0.00 0.00 47 1025.8
20220628142029 67 295 0.0 0.9 0.00 0.00 0.00 50 1025.8
20220628141540 66 294 0.0 0.9 0.00 0.00 0.00 49 1025.8
20220628141035 65 294 0.0 0.9 0.00 0.00 0.00 48 1025.8
20220628140537 64 294 0.0 0.9 0.00 0.00 0.00 53 1025.8
20220628140027 63 294 0.0 0.9 0.00 0.00 0.00 54 1025.8
20220628135538 62 294 0.0 0.9 0.00 0.00 0.00 56 1025.9
20220628135035 61 294 0.0 0.0 0.00 0.00 0.00 58 1025.9
20220628134528 61 294 0.0 0.9 0.00 0.00 0.00 58 1025.8
20220628134041 60 294 0.0 0.9 0.00 0.00 0.00 63 1025.8
20220628133538 59 295 0.0 0.9 0.00 0.00 0.00 72 1025.8
20220628133029 59 295 0.0 0.9 0.00 0.00 0.00 81 1025.8
20220628132541 58 295 0.0 0.9 0.00 0.00 0.00 78 1025.8
20220628132045 57 295 0.0 0.9 0.00 0.00 0.00 80 1025.8
20220628131540 57 295 0.0 0.9 0.00 0.00 0.00 78 1025.8
20220628131032 56 295 0.0 0.9 0.00 0.00 0.00 77 1025.8
20220628130532 56 295 0.0 1.7 0.00 0.00 0.00 80 1025.9
20220628130044 55 295 0.0 1.7 0.00 0.00 0.00 80 1025.8
20220628125539 55 294 0.0 0.9 0.00 0.00 0.00 79 1025.8
20220628125042 54 294 0.0 0.0 0.00 0.00 0.00 79 1025.8
20220628124541 54 294 0.0 0.0 0.00 0.00 0.00 77 1025.8
20220628124038 54 294 0.0 0.9 0.00 0.00 0.00 78 1025.8
20220628123532 53 294 0.0 0.9 0.00 0.00 0.00 77 1025.8
20220628123040 53 294 0.0 0.9 0.00 0.00 0.00 77 1025.8
20220628122540 53 294 0.0 0.9 0.00 0.00 0.00 76 1025.8
20220628122037 53 294 0.0 0.0 0.00 0.00 0.00 73 1025.9
20220628121547 53 294 0.0 0.9 0.00 0.00 0.00 75 1025.8
20220628121045 53 294 0.0 0.9 0.00 0.00 0.00 74 1025.9
20220628120538 53 294 0.0 0.9 0.00 0.00 0.00 73 1025.9
20220628120030 53 294 0.0 0.9 0.00 0.00 0.00 73 1025.9
20220628115529 54 294 0.0 0.0 0.00 0.00 0.00 73 1025.9
20220628115044 54 294 0.0 0.9 0.00 0.00 0.00 72 1025.9
20220628114538 54 294 0.0 0.9 0.00 0.00 0.00 73 1025.9
20220628114038 54 294 0.0 0.9 0.00 0.00 0.00 72 1025.9
20220628113533 54 294 0.0 0.0 0.00 0.00 0.00 72 1025.9
20220628113023 54 294 0.0 0.0 0.00 0.00 0.00 71 1025.9
20220628112527 54 294 0.0 0.9 0.00 0.00 0.00 71 1026.0
20220628112040 54 294 0.0 0.9 0.00 0.00 0.00 72 1026.0
20220628111534 54 294 0.0 1.7 0.00 0.00 0.00 71 1025.9
20220628111034 54 294 0.0 1.7 0.00 0.00 0.00 71 1025.9
20220628110535 55 294 0.0 0.9 0.00 0.00 0.00 70 1025.9
20220628110028 55 294 0.0 0.9 0.00 0.00 0.00 71 1026.0
20220628105527 55 294 0.0 0.9 0.00 0.00 0.00 71 1026.0
20220628105044 55 294 0.0 1.7 0.00 0.00 0.00 71 1026.0
20220628104537 55 294 0.9 1.7 0.00 0.00 0.00 71 1025.8
20220628104036 55 293 0.0 0.9 0.00 0.00 0.00 69 1025.9
20220628103536 55 293 0.0 0.0 0.00 0.00 0.00 71 1025.9
20220628103030 54 293 0.0 0.0 0.00 0.00 0.00 68 1025.9
20220628102544 54 293 0.0 0.9 0.00 0.00 0.00 67 1025.9
20220628102038 54 293 0.0 0.9 0.00 0.00 0.00 68 1025.9
20220628101531 54 293 0.0 0.9 0.00 0.00 0.00 68 1025.9
20220628101029 54 293 0.0 0.9 0.00 0.00 0.00 70 1025.9
20220628100542 54 293 0.0 0.0 0.00 0.00 0.00 73 1026.0
20220628100025 54 293 0.0 0.0 0.00 0.00 0.00 73 1026.0
20220628095538 54 293 0.0 0.9 0.00 0.00 0.00 70 1026.0
20220628095031 54 293 0.0 0.9 0.00 0.00 0.00 73 1026.1
20220628094532 55 293 0.0 0.0 0.00 0.00 0.00 74 1026.1
20220628094027 55 293 0.0 0.9 0.00 0.00 0.00 73 1026.2
20220628093545 55 293 0.0 0.9 0.00 0.00 0.00 72 1026.2
20220628093041 55 293 0.0 0.9 0.00 0.00 0.00 72 1026.3
20220628092533 55 293 0.0 0.9 0.00 0.00 0.00 72 1026.4
20220628092041 55 293 0.0 0.9 0.00 0.00 0.00 72 1026.4
20220628091541 56 293 0.0 0.0 0.00 0.00 0.00 71 1026.4
20220628091031 56 293 0.0 0.0 0.00 0.00 0.00 70 1026.5
20220628090542 56 293 0.0 0.0 0.00 0.00 0.00 70 1026.5
20220628090042 56 293 0.0 0.0 0.00 0.00 0.00 70 1026.6
20220628085540 56 293 0.0 0.0 0.00 0.00 0.00 70 1026.5
20220628085032 57 293 0.0 0.0 0.00 0.00 0.00 69 1026.6
20220628084528 57 293 0.0 0.9 0.00 0.00 0.00 69 1026.6
20220628084042 57 293 0.0 0.9 0.00 0.00 0.00 69 1026.7
20220628083537 57 293 0.0 0.0 0.00 0.00 0.00 68 1026.6
20220628083034 58 293 0.0 0.0 0.00 0.00 0.00 69 1026.7
20220628082532 58 293 0.0 0.0 0.00 0.00 0.00 69 1026.7
20220628082045 58 293 0.0 0.0 0.00 0.00 0.00 69 1026.8
20220628081535 58 293 0.0 0.0 0.00 0.00 0.00 69 1026.8
20220628081044 58 293 0.0 0.0 0.00 0.00 0.00 68 1026.7
20220628080543 58 293 0.0 0.0 0.00 0.00 0.00 68 1026.8
20220628080032 59 293 0.0 0.0 0.00 0.00 0.00 68 1026.8
20220628075545 59 293 0.0 0.0 0.00 0.00 0.00 67 1026.9
20220628075044 59 293 0.0 0.0 0.00 0.00 0.00 67 1026.7
20220628074533 59 293 0.0 0.0 0.00 0.00 0.00 66 1026.8
20220628074045 59 293 0.0 0.0 0.00 0.00 0.00 67 1027.0
20220628073545 60 293 0.0 0.0 0.00 0.00 0.00 66 1027.0
20220628073034 60 293 0.0 0.0 0.00 0.00 0.00 64 1027.0
20220628072527 60 293 0.0 0.0 0.00 0.00 0.00 63 1027.0
20220628072028 61 293 0.0 0.0 0.00 0.00 0.00 63 1027.1
20220628071540 61 293 0.0 0.0 0.00 0.00 0.00 62 1027.1
20220628071033 61 293 0.0 0.0 0.00 0.00 0.00 61 1027.1
20220628070526 62 293 0.0 0.0 0.00 0.00 0.00 61 1027.3
20220628070042 62 293 0.0 0.0 0.00 0.00 0.00 61 1027.3
20220628065534 62 293 0.0 0.0 0.00 0.00 0.00 60 1027.3
20220628065031 63 293 0.0 0.0 0.00 0.00 0.00 60 1027.4
20220628064526 63 293 0.0 0.0 0.00 0.00 0.00 59 1027.5
20220628064040 63 293 0.0 0.0 0.00 0.00 0.00 59 1027.5
20220628063540 64 293 0.0 0.0 0.00 0.00 0.00 58 1027.6
20220628063029 64 293 0.0 0.0 0.00 0.00 0.00 57 1027.6
20220628062540 64 293 0.0 0.0 0.00 0.00 0.00 55 1027.6
20220628062043 65 293 0.0 0.0 0.00 0.00 0.00 54 1027.7
20220628061536 65 293 0.0 0.0 0.00 0.00 0.00 54 1027.7
20220628061027 65 293 0.0 0.9 0.00 0.00 0.00 54 1027.8
20220628060537 66 293 0.0 1.7 0.00 0.00 0.00 55 1027.9
20220628060046 66 293 0.0 1.7 0.00 0.00 0.00 53 1028.0
20220628055545 67 293 0.0 0.0 0.00 0.00 0.00 52 1028.0
20220628055035 67 293 0.0 0.9 0.00 0.00 0.00 53 1028.0
20220628054544 67 293 0.0 0.9 0.00 0.00 0.00 52 1028.1
20220628054041 68 293 0.0 0.0 0.00 0.00 0.00 53 1028.2
20220628053532 68 293 0.0 0.0 0.00 0.00 0.00 51 1028.2
20220628053024 68 293 0.0 0.0 0.00 0.00 0.00 50 1028.1
20220628052528 68 293 0.0 0.0 0.00 0.00 0.00 50 1028.1
20220628052041 68 293 0.0 0.9 0.00 0.00 0.00 50 1028.1
20220628051531 68 293 0.0 0.9 0.00 0.00 0.00 49 1028.1
20220628051028 68 293 0.0 0.9 0.00 0.00 0.00 49 1028.2
20220628050535 69 293 0.0 0.0 0.00 0.00 0.00 49 1028.2
20220628050026 69 293 0.0 0.9 0.00 0.00 0.00 48 1028.1
20220628045528 69 293 0.0 1.7 0.00 0.00 0.00 48 1028.1
20220628045041 69 293 0.0 1.7 0.00 0.00 0.00 47 1028.1
20220628044531 69 296 0.0 1.7 0.00 0.00 0.00 47 1028.2
20220628044033 70 279 0.9 2.6 0.00 0.00 0.00 47 1028.1
20220628043531 70 306 0.9 2.6 0.00 0.00 0.00 46 1028.0
20220628043041 70 270 0.0 3.5 0.00 0.00 0.00 46 1028.1
20220628042541 70 257 0.9 3.5 0.00 0.00 0.00 46 1028.1
20220628042034 71 278 0.9 3.5 0.00 0.00 0.00 45 1028.1
20220628041525 71 235 1.7 3.5 0.00 0.00 0.00 44 1028.1
20220628041047 71 236 1.7 3.5 0.00 0.00 0.00 43 1028.0
20220628040545 71 131 0.9 2.6 0.00 0.00 0.00 42 1027.8
20220628040035 71 309 1.7 2.6 0.00 0.00 0.00 40 1027.7
20220628035529 72 232 0.0 0.9 0.00 0.00 0.00 42 1027.5
20220628035040 72 231 0.0 0.9 0.00 0.00 0.00 39 1027.1
20220628034539 72 231 0.0 0.9 0.00 0.00 0.00 38 1026.9
20220628034035 72 232 0.0 0.9 0.00 0.00 0.00 40 1026.8
20220628033546 73 232 0.0 0.9 0.00 0.00 0.00 40 1026.7
20220628033041 73 232 0.0 0.9 0.00 0.00 0.00 40 1026.7
20220628032533 73 232 0.0 0.9 0.00 0.00 0.00 39 1026.6
20220628032046 73 232 0.0 0.9 0.00 0.00 0.00 37 1026.3